[[{"header":{"parameterUnit":"m.s-1","parameterCategory":1,"la1":30.2991,"la2":30.254,"lo1":-89.0895,"lo2":-89.0444,"dy":0.0017,"dx":0.0017,"nx":28,"ny":28,"refTime":"2023-09-10T03:00:00:Z","depth":0,"parameterNumber":2,"parameterNumberName":"U-component_of_WINDS"},"data":[0,0,0,0,0,0,0,0,0,0,0,0,0,0,0,0,0,0,0,0,0,0,0,0,0,0,0,0,0,0,0,0,0,0,0,0,0,0,0,0,0,0,0,0,0,0,0,0,0,0,0,0,0,0,0,0,0,0,-2.986,-2.9859,0,-2.9808,-2.9807,-2.9807,-2.974,-2.9739,-2.9738,-2.9737,-2.9683,-2.9683,-2.9683,0,0,0,0,0,0,0,0,0,0,0,0,0,-2.9901,-2.9901,-2.986,-2.9859,-2.9859,-2.9808,-2.9807,-2.9807,-2.9741,-2.9739,-2.9738,-2.9737,-2.9684,-2.9683,-2.9683,0,0,0,0,0,0,0,0,0,0,0,0,0,-2.987,-2.9901,-2.986,-2.982,-2.9815,-2.9808,-2.9807,-2.9807,-2.9741,-2.9739,-2.9738,-2.9736,-2.9684,-2.9683,-2.9682,-2.9711,0,0,-2.968,-2.968,0,0,0,0,0,0,0,0,-2.9872,-2.9868,-2.9826,-2.9822,-2.9818,-2.9779,-2.9802,-2.9774,-2.9741,-2.9769,-2.9737,-2.9735,-2.9717,-2.9713,-2.9707,-2.9708,-2.9706,-2.968,-2.968,-2.968,-2.968,0,0,0,0,0,0,0,-2.9874,-2.987,-2.9839,-2.9826,-2.9821,-2.9804,-2.9798,-2.9797,-2.9752,-2.9767,-2.9762,-2.9757,-2.9714,-2.9708,-2.9705,-2.9705,-2.968,-2.968,-2.9679,-2.9679,-2.9726,-2.9727,0,0,0,0,0,0,-2.9882,-2.9872,-2.9841,-2.9838,-2.9841,-2.9804,-2.9797,-2.9793,-2.9752,-2.9745,-2.9758,-2.9754,-2.971,-2.9706,-2.9703,-2.9732,-2.968,-2.9679,-2.9679,-2.9724,-2.9726,-2.9728,0,0,0,0,0,0,-2.9883,-2.988,-2.9843,-2.9854,-2.9848,-2.9805,-2.9801,-2.9793,-2.9787,-2.9746,-2.9737,-2.976,-2.9708,-2.9704,-2.9709,-2.9729,-2.9679,-2.9678,-2.9722,-2.9725,-2.9727,-2.9792,0,0,0,0,0,0,-2.9885,-2.9881,-2.9891,-2.9855,-2.9848,-2.9851,-2.9802,-2.9793,-2.9786,-2.978,-2.9745,-2.9738,-2.9707,-2.971,-2.9708,-2.9728,-2.9678,-2.972,-2.9723,-2.9726,-2.9787,-2.9796,-2.9803,0,0,0,0,0,-2.9886,-2.9912,-2.9892,-2.9889,-2.986,-2.9852,-2.9848,-2.9811,-2.9788,-2.9797,-2.9771,-2.9739,-2.9728,-2.9711,-2.9709,-2.9728,-2.9719,-2.9722,-2.9726,-2.9784,-2.9794,-2.9803,0,0,0,0,0,0,-2.9951,-2.9906,-2.9884,-2.9898,-2.9879,-2.9841,-2.9852,-2.9824,-2.9811,-2.9806,-2.9761,-2.9754,-2.9764,-2.9747,-2.9729,-2.9753,-2.9718,-2.9722,-2.9763,-2.9773,-2.9781,-2.9784,-2.9677,0,0,0,0,0,-2.9968,-2.9965,-2.9926,-2.9942,-2.9934,-2.9895,-2.989,-2.9864,-2.9842,-2.9834,-2.9808,-2.9788,-2.978,-2.9776,-2.9766,-2.9785,-2.9776,-2.9797,-2.9805,-2.9812,-2.9814,-2.9822,-2.983,-2.974,-2.974,-2.974,0,0,-3.0,-2.9975,-2.9976,-2.9954,-2.9936,-2.9935,-2.9888,-2.9889,-2.9886,-2.9834,-2.9837,-2.9817,-2.9792,-2.9804,-2.9808,-2.979,-2.9838,-2.9816,-2.9822,-2.9821,-2.9827,-2.9835,-2.9843,-2.9742,-2.9742,-2.9741,0,0,-3.0059,-3.004,-3.0051,-3.0035,-3.0009,-2.9983,-2.9986,-2.9951,-2.9936,-2.9939,-2.9899,-2.9896,-2.9884,-2.9867,-2.9857,-2.991,-2.988,-2.9908,-2.9949,-2.9957,-2.9964,-2.997,-2.9988,-2.9995,-2.9912,-2.9912,-2.9912,0,-3.0103,-3.0099,-3.006,-3.0063,-3.0054,-3.0007,-3.0017,-3.0003,-2.9975,-2.997,-2.995,-2.9933,-2.9913,-2.992,-2.9933,-2.9927,-2.9928,-2.9911,-2.9966,-2.9972,-2.9977,-2.9993,-3.0,-2.9916,-2.9915,-2.9915,-2.9914,0,-3.0153,-3.0151,-3.0163,-3.0138,-3.013,-3.0137,-3.0099,-3.0096,-3.0071,-3.0047,-3.005,-3.0024,-3.0008,-3.0008,-2.9984,-3.0012,-3.0001,-2.9975,-2.9939,-2.999,-3.0004,-3.001,-2.9921,-2.9919,-2.9918,-2.9917,0,0,-3.025,-3.0204,-3.0209,-3.0196,-3.0165,-3.0162,-3.0166,-3.0151,-3.0149,-3.0132,-3.0133,-3.0124,-3.0099,-3.0088,-3.0061,-3.0069,-3.0111,-3.0041,-3.004,-3.0054,-3.0139,-3.0158,-3.0165,-3.0091,-3.0092,-3.0093,-3.014,0,-3.0302,-3.0306,-3.0272,-3.0286,-3.0283,-3.0238,-3.0242,-3.0223,-3.0201,-3.0195,-3.017,-3.0164,-3.0133,-3.0125,-3.0131,-3.0105,-3.0127,-3.0101,-3.0091,-3.0091,-3.0097,-3.0173,-3.0193,-3.0239,-3.0146,-3.0147,-3.0147,0,-3.0362,-3.0348,-3.0362,-3.0329,-3.0326,-3.033,-3.0313,-3.0308,-3.0286,-3.0269,-3.0257,-3.0226,-3.0228,-3.0195,-3.0196,-3.0179,-3.0173,-3.016,-3.0161,-3.0157,-3.0121,-3.017,-3.0253,-3.0259,-3.0156,-3.0156,-3.0155,0,-3.0429,-3.0414,-3.042,-3.0411,-3.0374,-3.0377,-3.0362,-3.0337,-3.033,-3.0315,-3.031,-3.0296,-3.0288,-3.0277,-3.0243,-3.0223,-3.0248,-3.0213,-3.0233,-3.0234,-3.0239,-3.0239,-3.032,-3.0238,-3.0238,-3.0238,-3.0238,0,-3.0489,-3.0499,-3.045,-3.0453,-3.0463,-3.0423,-3.0434,-3.0414,-3.0393,-3.0391,-3.0352,-3.0352,-3.0308,-3.0302,-3.0275,-3.0279,-3.0276,-3.0262,-3.0255,-3.0265,-3.0266,-3.0259,-3.0254,-3.024,-3.0239,-3.0239,-3.0239,0,-3.0565,-3.0533,-3.0536,-3.0501,-3.0492,-3.05,-3.0469,-3.0471,-3.0447,-3.0445,-3.0443,-3.0405,-3.0396,-3.0362,-3.0345,-3.0327,-3.0339,-3.0326,-3.0347,-3.0341,-3.0363,-3.0361,-3.0441,-3.0449,-3.0364,-3.0365,-3.0366,0,-3.0605,-3.0611,-3.0576,-3.0573,-3.0559,-3.0554,-3.0546,-3.0508,-3.0502,-3.0477,-3.0481,-3.0469,-3.0458,-3.0446,-3.0416,-3.0403,-3.0388,-3.0417,-3.0385,-3.0395,-3.0386,-3.0386,-3.0385,-3.0423,-3.0424,-3.0425,-3.0426,0,-3.0678,-3.0662,-3.0653,-3.0638,-3.063,-3.0617,-3.0601,-3.06,-3.0558,-3.0553,-3.0544,-3.0535,-3.0517,-3.0506,-3.0488,-3.0471,-3.0441,-3.0437,-3.044,-3.0449,-3.0461,-3.0453,-3.0363,-3.0434,-3.0434,-3.0433,-3.0432,-3.0432,-3.0735,-3.0739,-3.0715,-3.0706,-3.069,-3.0676,-3.0676,-3.0652,-3.0644,-3.0626,-3.0605,-3.0598,-3.0575,-3.0548,-3.0533,-3.0527,-3.0511,-3.0516,-3.0517,-3.0519,-3.0523,-3.0463,-3.0524,-3.0524,-3.0523,-3.0523,-3.0523,0,-3.0805,-3.0788,-3.078,-3.0759,-3.0752,-3.0726,-3.0707,-3.0703,-3.0697,-3.0679,-3.0668,-3.0657,-3.0646,-3.0616,-3.0602,-3.0602,-3.0588,-3.06,-3.0598,-3.0595,-3.054,-3.0537,-3.0611,-3.0611,-3.0611,-3.0611,-3.0611,-3.0611,-3.084,-3.0844,-3.0825,-3.0821,-3.0803,-3.0796,-3.0787,-3.0774,-3.0759,-3.0749,-3.0739,-3.072,-3.0697,-3.068,-3.0669,-3.066,-3.0656,-3.0671,-3.0658,-3.0607,-3.0599,-3.059,-3.0588,-3.0671,-3.0671,-3.0713,-3.0714,-3.0714]},{"header":{"parameterUnit":"m.s-1","parameterCategory":1,"la1":30.2991,"la2":30.254,"lo1":-89.0895,"lo2":-89.0444,"dy":0.0017,"dx":0.0017,"nx":28,"ny":28,"refTime":"2023-09-10T03:00:00:Z","depth":0,"parameterNumber":3,"parameterNumberName":"V-component_of_WINDS"},"data":[0,0,0,0,0,0,0,0,0,0,0,0,0,0,0,0,0,0,0,0,0,0,0,0,0,0,0,0,0,0,0,0,0,0,0,0,0,0,0,0,0,0,0,0,0,0,0,0,0,0,0,0,0,0,0,0,0,0,-0.5024,-0.5024,0,-0.5011,-0.5011,-0.5011,-0.4982,-0.4981,-0.498,-0.498,-0.4966,-0.4967,-0.4967,0,0,0,0,0,0,0,0,0,0,0,0,0,-0.5023,-0.5023,-0.5024,-0.5024,-0.5024,-0.5011,-0.5011,-0.5011,-0.4982,-0.4981,-0.498,-0.4979,-0.4966,-0.4967,-0.4967,0,0,0,0,0,0,0,0,0,0,0,0,0,-0.5018,-0.5023,-0.5024,-0.5008,-0.5006,-0.5011,-0.5011,-0.5011,-0.4982,-0.4981,-0.498,-0.4979,-0.4966,-0.4967,-0.4967,-0.4987,0,0,-0.4968,-0.4968,0,0,0,0,0,0,0,0,-0.5018,-0.5018,-0.501,-0.5009,-0.5007,-0.4997,-0.5006,-0.5003,-0.4982,-0.4991,-0.498,-0.4979,-0.4977,-0.4977,-0.4976,-0.4986,-0.4986,-0.4968,-0.4968,-0.4968,-0.4968,0,0,0,0,0,0,0,-0.5019,-0.5018,-0.5019,-0.501,-0.5008,-0.5001,-0.4999,-0.5005,-0.4989,-0.499,-0.4988,-0.4987,-0.4976,-0.4976,-0.4976,-0.4985,-0.4968,-0.4968,-0.4968,-0.4968,-0.501,-0.5011,0,0,0,0,0,0,-0.5021,-0.5019,-0.5019,-0.5019,-0.5011,-0.5001,-0.5,-0.5001,-0.4989,-0.4987,-0.4988,-0.4986,-0.4976,-0.4975,-0.4975,-0.4997,-0.4968,-0.4969,-0.4969,-0.5009,-0.501,-0.5011,0,0,0,0,0,0,-0.5022,-0.5022,-0.502,-0.5018,-0.5017,-0.5002,-0.5004,-0.5001,-0.5001,-0.4987,-0.4984,-0.499,-0.4975,-0.4975,-0.4984,-0.4996,-0.4969,-0.4969,-0.5008,-0.5009,-0.501,-0.5041,0,0,0,0,0,0,-0.5022,-0.5022,-0.503,-0.5019,-0.5018,-0.5029,-0.5005,-0.5002,-0.5002,-0.4999,-0.4989,-0.4987,-0.4974,-0.4984,-0.4984,-0.4996,-0.4969,-0.5007,-0.5008,-0.501,-0.5039,-0.5044,-0.5047,0,0,0,0,0,-0.5022,-0.5039,-0.503,-0.5031,-0.5027,-0.503,-0.503,-0.5015,-0.5003,-0.501,-0.5001,-0.4987,-0.4995,-0.4985,-0.4985,-0.4997,-0.5006,-0.5008,-0.501,-0.5037,-0.5043,-0.5047,0,0,0,0,0,0,-0.5053,-0.5038,-0.5028,-0.5042,-0.5038,-0.5025,-0.5034,-0.5022,-0.5021,-0.5018,-0.5,-0.4998,-0.501,-0.5004,-0.4994,-0.5015,-0.4998,-0.5,-0.5019,-0.5024,-0.5028,-0.5029,-0.4969,0,0,0,0,0,-0.5061,-0.5065,-0.5052,-0.5066,-0.5064,-0.505,-0.505,-0.504,-0.5034,-0.5032,-0.5024,-0.5019,-0.502,-0.5022,-0.5022,-0.5038,-0.5035,-0.5046,-0.5051,-0.5054,-0.5056,-0.5063,-0.5068,-0.5018,-0.5018,-0.5018,0,0,-0.5079,-0.5071,-0.5075,-0.5072,-0.5067,-0.5071,-0.5048,-0.5054,-0.5057,-0.5033,-0.5041,-0.5035,-0.5028,-0.504,-0.5046,-0.5036,-0.5069,-0.5057,-0.5059,-0.506,-0.5066,-0.5071,-0.5075,-0.5019,-0.5019,-0.5019,0,0,-0.5114,-0.5108,-0.5119,-0.5115,-0.5107,-0.5097,-0.51,-0.5089,-0.5084,-0.5091,-0.5073,-0.5076,-0.5079,-0.5075,-0.5073,-0.5104,-0.509,-0.5104,-0.5126,-0.5133,-0.5137,-0.5141,-0.5151,-0.5155,-0.5107,-0.5107,-0.5107,0,-0.5137,-0.5143,-0.5126,-0.5133,-0.5131,-0.511,-0.512,-0.5116,-0.511,-0.5109,-0.5099,-0.5101,-0.5095,-0.5106,-0.5113,-0.5113,-0.5114,-0.5106,-0.5138,-0.5141,-0.5144,-0.5154,-0.5158,-0.5108,-0.5108,-0.5108,-0.5108,0,-0.5171,-0.5175,-0.5184,-0.5178,-0.5178,-0.5186,-0.5171,-0.5172,-0.5161,-0.5152,-0.5159,-0.5151,-0.5149,-0.5151,-0.514,-0.516,-0.5154,-0.5141,-0.5123,-0.5151,-0.516,-0.5164,-0.5111,-0.511,-0.511,-0.5109,0,0,-0.5226,-0.521,-0.5213,-0.521,-0.5199,-0.5202,-0.5209,-0.5206,-0.5208,-0.5204,-0.5209,-0.5211,-0.5198,-0.5196,-0.5184,-0.5191,-0.5215,-0.5177,-0.5176,-0.5184,-0.5235,-0.5245,-0.5249,-0.5206,-0.5206,-0.5207,-0.5235,0,-0.5258,-0.5269,-0.5254,-0.5268,-0.5271,-0.525,-0.5256,-0.525,-0.5241,-0.5242,-0.5232,-0.5234,-0.5217,-0.5216,-0.5221,-0.5211,-0.5225,-0.5209,-0.521,-0.521,-0.5212,-0.5254,-0.5265,-0.5292,-0.5239,-0.5239,-0.524,0,-0.5298,-0.5295,-0.5309,-0.5297,-0.5297,-0.5303,-0.5299,-0.53,-0.5292,-0.5285,-0.5282,-0.5268,-0.5273,-0.5256,-0.5262,-0.5251,-0.5251,-0.5246,-0.5246,-0.5246,-0.5227,-0.5255,-0.5301,-0.5305,-0.5245,-0.5245,-0.5244,0,-0.5336,-0.5335,-0.5344,-0.5341,-0.5327,-0.5331,-0.5325,-0.5317,-0.5316,-0.5312,-0.5311,-0.5308,-0.5307,-0.5304,-0.529,-0.5278,-0.5298,-0.5279,-0.5292,-0.5292,-0.5297,-0.5297,-0.5343,-0.5297,-0.5297,-0.5297,-0.5297,0,-0.5373,-0.5383,-0.536,-0.5366,-0.5375,-0.5357,-0.5367,-0.5359,-0.5351,-0.5354,-0.5335,-0.5338,-0.5319,-0.5319,-0.5308,-0.5314,-0.5314,-0.5308,-0.5305,-0.531,-0.531,-0.5309,-0.5307,-0.5298,-0.5298,-0.5297,-0.5297,0,-0.5418,-0.5403,-0.5411,-0.5396,-0.5393,-0.5401,-0.5388,-0.5392,-0.5381,-0.5385,-0.5385,-0.5368,-0.5368,-0.5353,-0.5349,-0.5341,-0.5353,-0.5346,-0.5355,-0.5353,-0.5367,-0.5366,-0.5414,-0.5419,-0.537,-0.537,-0.537,0,-0.5443,-0.545,-0.5436,-0.5436,-0.5431,-0.5432,-0.5431,-0.5413,-0.5412,-0.5403,-0.5408,-0.5406,-0.5403,-0.5403,-0.5391,-0.5388,-0.5381,-0.5398,-0.538,-0.5384,-0.538,-0.538,-0.538,-0.5402,-0.5402,-0.5403,-0.5403,0,-0.5489,-0.5481,-0.548,-0.5476,-0.5474,-0.547,-0.5465,-0.5467,-0.5447,-0.5447,-0.5446,-0.5444,-0.544,-0.5438,-0.5432,-0.5425,-0.5411,-0.5409,-0.5411,-0.5417,-0.5421,-0.5418,-0.5365,-0.5408,-0.5407,-0.5407,-0.5407,-0.5407,-0.5524,-0.5529,-0.5519,-0.5518,-0.5512,-0.5507,-0.551,-0.5499,-0.5498,-0.5493,-0.5482,-0.5483,-0.5474,-0.5465,-0.5459,-0.5459,-0.545,-0.5455,-0.5455,-0.5457,-0.5459,-0.5421,-0.5458,-0.5458,-0.5458,-0.5458,-0.5458,0,-0.5568,-0.5561,-0.556,-0.5553,-0.5552,-0.5538,-0.5531,-0.5531,-0.5531,-0.5524,-0.5521,-0.552,-0.5517,-0.5504,-0.55,-0.5502,-0.5496,-0.5502,-0.5502,-0.55,-0.5468,-0.5465,-0.5508,-0.5508,-0.5508,-0.5508,-0.5508,-0.5508,-0.5591,-0.5598,-0.5589,-0.5592,-0.5584,-0.5584,-0.5581,-0.5576,-0.557,-0.5569,-0.5567,-0.5558,-0.5548,-0.5543,-0.554,-0.5536,-0.5535,-0.5544,-0.5538,-0.5507,-0.5503,-0.5498,-0.5496,-0.5544,-0.5544,-0.557,-0.5571,-0.5571]}]]